www.pogodaiklimat.ru

Погода и климат >> Архив погоды >> Россия >> Краснодарский край >> Красная Поляна


ПОГОДА в Красной Поляне

  • Прогноз погоды в Красной Поляне
  • Монитор погоды в Красной Поляне
  • Климат города

АРХИВ ПОГОДЫ в Красной Поляне

Время (UTC), дата Ветер
(напр.,м/с)
 
Видим.   Явления Облачность Т
(С)
Тd
(С)
f
(%)
Тe
(С)
Тes
(С)
Комфортность P
(гПа)
Po
(гПа)
Тmin
(С)
Tmax
(С)
R
(мм)
S
(см)
09 17.02 ЮЗ 2 20 км 1/0
[Ac lent]
-1.8 -12.4 44 -5 +2 1028.4 958.2
12 17.02 ЮЗ 3 17 км 5/4 1000 м
[Cu med, cong Ac As]
+1.4 -5.5 60 -2 -1 1027.4 958.1
15 17.02 ЮЗ 2 20 км 8/8 1170 м
[Sc diur, vesp]
-1.3 -4.0 82 -5 -5 1029.9 959.7 +1.7
18 17.02 З 1 16 км слабый ливневой снег 10/10 840 м
[Cb cap]
-2.0 -4.2 85 -4 -4 1031.4 961.0
21 17.02 В 2 20 км {ливн. осадки} 10/10 420 м
[Sc]
-3.0 -9.0 63 -7 -7 1031.9 961.1
00 18.02 В 1 20 км {ливн. осадки} 3/3 1000 м
[Sc]
-5.9 -10.5 70 -8 -8 1032.0 960.5
03 18.02 С 1 20 км ясно -7.6 -10.0 83 -10 -10 1032.0 960.1 -7.7 76
06 18.02 Ю 1 20 км ясно -4.4 -10.0 65 -6 -4 1029.9 958.9 -8.5
09 18.02 ЮЗ 1 20 км 10/0
[Ac As Ci ing]
+1.7 -9.0 45 +1 +4 1027.0 957.7
12 18.02 ЮВ 1 20 км 10/0
[Ac As]
+3.3 -9.3 39 +3 +4 1025.5 956.7
15 18.02 СВ 1 20 км 10/0
[Cs]
+1.7 -3.2 70 0 0 1026.2 957.0 +4.5
18 18.02 С 1 20 км ясно -1.8 -5.3 77 -4 -4 1028.5 958.3
21 18.02 С 1 20 км ясно -2.7 -6.5 75 -5 -5 1030.5 959.9
00 19.02 СВ 1 20 км ясно -4.2 -7.6 77 -6 -6 1032.0 960.9
03 19.02 В 1 20 км 10/0
[Ac As]
-1.8 -6.9 68 -4 -4 1030.8 960.4 -4.7 75
06 19.02 штиль 0 20 км 8/0
[Ci sp]
-0.4 -5.6 68 -1 +2 1032.1 962.0
09 19.02 ЮЗ 1 20 км 4/0
[Ci]
+6.5 -7.9 35 +6 +14 1029.9 961.6
12 19.02 ЮЗ 1 20 км 10/0 2000 м
[Ac As Ci]
+8.0 -8.5 30 +8 +11 1028.8 960.9
15 19.02 С 1 20 км 10/0 2000 м
[Ci]
+3.3 -2.9 64 +2 +2 1030.0 961.0 +9.4
18 19.02 С 2 19 км 8/0
[Ac As]
+1.9 -3.0 70 -1 -1 1030.2 960.8
21 19.02 штиль 0 20 км 10/0
[Ac und]
+1.5 -2.8 73 +1 +1 1029.9 960.4
00 20.02 В 1 20 км 4/0
[Ac trans]
+0.3 -3.3 77 -1 -1 1029.1 959.4
03 20.02 В 1 20 км 10/0
[Ac cuf]
+0.2 -3.0 79 -2 -2 1028.6 958.9 -0.6 60
06 20.02 ЮВ 1 20 км 6/0
[Cs]
+2.6 -3.3 65 +1 +4 1027.4 958.4 -0.9
09 20.02 ЮЗ 1 20 км 4/0
[Cs]
+7.5 -4.3 43 +7 +16 опасность
простуды
1024.0 956.3
12 20.02 Ю 1 20 км 9/0
[Cs]
+11.0 -5.5 31 +11 +15 1020.4 953.8
15 20.02 С 2 20 км 8/0
[Cs]
+4.9 -0.9 66 +3 +3 1020.6 952.6 +11.2
18 20.02 В 1 20 км 8/0
[Cs]
+2.6 -1.9 72 +1 +1 1021.0 952.4
21 20.02 СВ 1 20 км 6/0
[Cs]
+0.6 -2.8 78 -1 -1 1021.4 952.3
00 21.02 В 1 20 км 4/0
[Cs]
-0.4 -3.8 78 -2 -2 1021.2 951.9
03 21.02 С 1 20 км 8/0
[Ac cuf Cs]
-0.4 -4.1 76 -2 -2 1020.3 951.0 -1.7 53
06 21.02 СЗ 1 20 км 10/0
[Ac As]
+1.0 -3.3 73 -1 0 1019.7 950.8
09 21.02 ЮЗ 1 20 км слабый ливневой снег 10/10 600 м
[Cb cap]
+2.3 -2.4 71 +1 +1 1019.9 951.3
12 21.02 штиль 0 7000 м слабый ливневой дождь 10/10 400 м
[Cb cap]
+1.7 +1.1 96 0 0 1017.7 949.2
15 21.02 штиль 0 200 м слабый ливневой дождь {туман} ?/? +0.6 +0.6 100 -1 -1 1017.4 948.6 +4.2 5
18 21.02 З 1 1200 м слабый ливневой снег {туман} 10/10 300 м
[Cb cap]
+0.3 +0.3 100 -2 -2 1018.1 949.2
21 21.02 ЮВ 1 1300 м слабый ливневой снег 10/10 300 м
[Cb cap]
+0.2 +0.2 100 -2 -2 1018.3 949.3
00 22.02 штиль 0 2000 м слабый ливневой снег 10/10 600 м
[Cb cap]
+0.2 +0.2 100 -1 -1 1018.1 949.2
03 22.02 штиль 0 10 км дымка {ливн. осадки} 10/10 600 м
[Sc diur, vesp]
+0.2 +0.2 100 -1 -1 1017.7 948.8 0.0 9 54
06 22.02 СВ 1 10 км {ливн. осадки} 10/8 1500 м
[Sc diur, vesp Ac lent]
+0.9 +0.8 99 -1 -1 1017.0 948.3
09 22.02 В 1 20 км 10/4 1000 м
[Sc diur, vesp Ac As]
+3.6 +1.6 87 +2 +4 1014.4 946.5
12 22.02 СВ 1 20 км {ливн. осадки} 10/4 1500 м
[Sc diur, vesp Ac cast]
+4.8 +1.3 78 +4 +5 1011.7 944.3
15 22.02 З 1 3300 м слабый ливневой дождь 10/10 90 м
[Cb cap]
+2.5 +2.1 97 +1 +1 1013.0 945.0 +5.2 4
18 22.02 З 2 1000 м ливневой снег 10/10 300 м
[Cb cap]
+0.4 +0.4 100 -3 -3 1014.3 945.7
21 22.02 штиль 0 1000 м слабый ливневой снег 10/10 120 м
[Cb calv]
-0.2 -0.2 100 -2 -2 1016.4 947.5
00 23.02 штиль 0 10 км дымка {ливн. осадки} 10/10 420 м
[Sc diur, vesp]
-0.4 -0.4 100 -2 -2 1019.3 950.1
03 23.02 штиль 0 4100 м дымка 10/10 600 м
[Sc diur, vesp]
-0.2 -0.2 100 -2 -2 1020.8 951.6 -0.6 18 69
06 23.02 штиль 0 10 км 9/9 1500 м
[Sc]
+0.5 +0.4 99 -1 -1 1021.9 952.8
09 23.02 штиль 0 20 км 10/8 1000 м
[Sc Ac cuf]
+2.1 +0.2 87 +1 +2 1021.5 952.8
12 23.02 В 1 20 км 10/8 1500 м
[Sc Ac As]
+3.4 +0.6 82 +2 +2 1019.1 950.9
15 23.02 В 1 3500 м слабый ливневой дождь 10/10 600 м
[Cb cap]
+1.4 +1.0 97 -1 -1 1020.1 951.3 +4.0 2
18 23.02 СВ 1 4200 м слабый ливневой дождь со снегом 10/10 240 м
[Cb cap]
+1.1 +1.0 99 -1 -1 1019.8 951.0
21 23.02 СВ 1 14 км в посл. час ливневой снег 10/10 600 м
[Cb calv]
+1.4 +1.4 100 -1 -1 1019.8 951.0
00 24.02 СВ 1 18 км слабый ливневой дождь 10/10 1000 м
[Cb cap]
+1.8 +1.7 99 -0 -0 1020.0 951.3
03 24.02 СВ 1 11 км слабый ливневой дождь 10/10 1000 м
[Cb cap]
+2.2 +1.9 98 0 0 1020.6 952.0 +0.5 13 55

 

Местоположение метеостанции Красная Поляна (Краснодарский край, Россия): широта 43.68 долгота 40.20 высота над уровнем моря 567 м.

В архиве по умолчанию представлена погода в Красной Поляне за последнюю неделю. Архивные данные за месяц целиком и за предыдущие месяцы, начиная с января 2011 года, Вы можете получить, выбрав интересующий диапазон дат из раскрывающегося списка и нажав кнопку "Ввод!".

Внимание! Время в таблицах - всемирное. Для получения местного времени необходимо прибавить поправку, которая в Красной Поляне равна 3 ч.

Смотрите также архив погоды в соседних городах и на ближайших метеорологических станциях:

Погода в Кепше (Краснодарский край, Россия) (14 км)
Погода в Гузерипле (Адыгея, Россия) (36 км)
Погода в Сочи (Краснодарский край, Россия) (36 км)
Погода в Сочи аэропорту (Адлер) (Краснодарский край, Россия) (37 км)
Погода в Псебае (Краснодарский край, Россия) (68 км)
Погода в Шунтуке (Адыгея, Россия) (88 км)
Погода в Горном (Краснодарский край, Россия) (100 км)
Погода в Туапсе (Краснодарский край, Россия) (102 км)
Погода в Майкопе (Адыгея, Россия) (105 км)
Погода в Зеленчукской (Карачаево-Черкессия, Россия) (112 км)

Пояснения к столбцам:

Ветер - указаны скорость ветра в м/с - средняя за 10 мин, порывы в срок и между сроками (в фигурных скобках) и направление, откуда дует ветер: С - северный, СВ - северо-восточный, В - восточный, ЮВ - юго-восточный, Ю - южный, ЮЗ - юго-западный, З - западный, СЗ - северо-западный.
Видимость - горизонтальная дальность видимости в метрах или километрах. При видимости от 1 до 10 км при отсутствии осадков обычно наблюдается дымка, при ухудшении видимости до 1 км и менее - туман. В сухую погоду видимость может ухудшаться дымом, пылью или мглою.
Явления - указаны атмосферные явления, наблюдавшиеся в срок или в последний час перед сроком; фигурными скобками обозначены явления, наблюдавшиеся между сроками (за 1-3 часа до срока); квадратными скобками обозначены град или гололедные отложения с указанием их диаметра в мм.
Облачность - указаны через наклонную черту общая и нижняя облачность в баллах и высота нижней границы облаков в метрах; квадратными скобками обозначены формы облаков: Ci - перистые, Cs - перисто-слоистые, Cc - перисто-кучевые, Ac - высококучевые, As - высокослоистые, Sc - слоисто-кучевые, Ns - слоисто-дождевые, Cu - кучевые, Cb - кучево-дождевые. Подробнее классификацию облаков см. в Атласе облаков (PDF).
T - Температура воздуха - температура, измеренная на высоте 2 м над землей.
Td - Температура точки росы - температура, при понижении до которой содержащийся в воздухе водяной пар достигнет насыщения.
f - Относительная влажность воздуха - влажноcть воздуха, измеренная на высоте 2 м над землей.
Te - Эффективная температура - температура, которую ощущает одетый по сезону человек в тени. Характеристика душности погоды. При расчете учитывается влияние влажности воздуха и скорости ветра на теплоощущения человека.
Tes - Эффективная температура на солнце - температура, которую ощущает человек, с поправкой на солнечный нагрев. Характеристика знойности погоды. Зависит от высоты солнца над горизонтом, облачности и скорости ветра. Ночью, в пасмурную погоду, а также при ветре 12 м/с и более поправка равна нулю.
P - Атмосферное давление - приведенное к уровню моря атмосферное давление.
Po - Атмосферное давление - измеренное на уровне метеостанции атмосферное давление.
Tmin - Минимальная температура - минимум температуры воздуха на высоте 2 м над землей.
Tmax - Максимальная температура - максимум температуры воздуха на высоте 2 м над землей.
R - Количество осадков - Количество выпавших осадков, мм. При наведении курсора мыши на число - период времени, за который выпало указанное количество осадков.
S - Снежный покров - Высота снежного покрова, см. При наведении курсора мыши на число - состояние снежного покрова и степень покрытия местности в баллах.